THY6QY LTCK-LTFM

Flight info

Callsign THY6QY
Flight time N/A
Altitude 38000
Route BAYIR UT888 SIV UL615 TIMOP UT97 KANQO
Aircraft A321/M-SDE3FGHIRWY/LB1

Departure

Time 2026-04-27 20:28
Airport Muş Airport (LTCK)

Arrival

Time N/A
Airport İstanbul Airport (LTFM)
Time Latitude Longitude Altitude Speed Heading
2026-04-27 20:08 38.75944 41.64693 4214 ft 0 kts 26°
2026-04-27 20:14 38.75943 41.64692 4214 ft 1 kts 26°
2026-04-27 20:14 38.75929 41.64683 4217 ft 3 kts 21°
2026-04-27 20:15 38.75910 41.64675 4216 ft 3 kts
2026-04-27 20:15 38.75890 41.64673 4215 ft 3 kts 347°
2026-04-27 20:15 38.75875 41.64681 4215 ft 2 kts 306°
2026-04-27 20:15 38.75872 41.64687 4215 ft 1 kts 297°
2026-04-27 20:19 38.75872 41.64686 4215 ft 1 kts 297°
2026-04-27 20:19 38.75877 41.64674 4214 ft 2 kts 296°
2026-04-27 20:19 38.75884 41.64647 4216 ft 3 kts 273°
2026-04-27 20:19 38.75848 41.64606 4217 ft 11 kts 208°
2026-04-27 20:20 38.75760 41.64549 4216 ft 17 kts 207°
2026-04-27 20:20 38.75641 41.64471 4214 ft 21 kts 207°
2026-04-27 20:20 38.75507 41.64384 4213 ft 21 kts 195°
2026-04-27 20:20 38.75407 41.64496 4212 ft 21 kts 115°
2026-04-27 20:21 38.75341 41.64669 4212 ft 22 kts 117°
2026-04-27 20:21 38.75272 41.64846 4214 ft 22 kts 116°
2026-04-27 20:21 38.75201 41.65028 4213 ft 23 kts 117°
2026-04-27 20:21 38.75130 41.65211 4217 ft 23 kts 115°
2026-04-27 20:22 38.75058 41.65406 4218 ft 25 kts 118°
2026-04-27 20:22 38.74979 41.65609 4215 ft 27 kts 116°
2026-04-27 20:22 38.74893 41.65827 4215 ft 28 kts 116°
2026-04-27 20:22 38.74807 41.66051 4214 ft 25 kts 116°
2026-04-27 20:23 38.74732 41.66249 4218 ft 25 kts 116°
2026-04-27 20:23 38.74655 41.66452 4217 ft 25 kts 116°
2026-04-27 20:23 38.74574 41.66661 4215 ft 28 kts 117°
2026-04-27 20:23 38.74489 41.66877 4211 ft 28 kts 116°
2026-04-27 20:24 38.74406 41.67090 4211 ft 26 kts 115°
2026-04-27 20:24 38.74328 41.67299 4214 ft 26 kts 116°
2026-04-27 20:24 38.74255 41.67487 4218 ft 23 kts 116°
2026-04-27 20:24 38.74182 41.67675 4216 ft 24 kts 118°
2026-04-27 20:25 38.74048 41.67745 4215 ft 17 kts 148°
2026-04-27 20:25 38.74027 41.67811 4214 ft 4 kts 75°
2026-04-27 20:25 38.74032 41.67829 4215 ft 1 kts 68°
2026-04-27 20:26 38.74033 41.67833 4215 ft 1 kts 67°
2026-04-27 20:26 38.74042 41.67854 4213 ft 4 kts 56°
2026-04-27 20:27 38.74070 41.67868 4215 ft 6 kts
2026-04-27 20:27 38.74115 41.67841 4215 ft 7 kts 321°
2026-04-27 20:27 38.74139 41.67785 4219 ft 8 kts 296°
2026-04-27 20:27 38.74206 41.67610 4217 ft 54 kts 296°
2026-04-27 20:28 38.74482 41.66891 4212 ft 124 kts 296°
2026-04-27 20:28 38.74940 41.65703 4220 ft 176 kts 296°
2026-04-27 20:28 38.75519 41.64278 4795 ft 179 kts 296°
2026-04-27 20:28 38.75895 41.63311 5291 ft 180 kts 295°
2026-04-27 20:29 38.76663 41.61277 5806 ft 206 kts 296°
2026-04-27 20:29 38.77310 41.59528 6047 ft 229 kts 296°
2026-04-27 20:29 38.78030 41.57575 6356 ft 254 kts 296°
2026-04-27 20:29 38.78819 41.55439 6734 ft 274 kts 296°
2026-04-27 20:30 38.79648 41.53203 7388 ft 281 kts 297°
2026-04-27 20:30 38.80496 41.50924 8110 ft 286 kts 297°
2026-04-27 20:30 38.81346 41.48638 8839 ft 290 kts 297°
2026-04-27 20:30 38.82237 41.46296 9581 ft 294 kts 302°
2026-04-27 20:31 38.83621 41.44413 10231 ft 293 kts 333°
2026-04-27 20:31 38.85555 41.43747 10868 ft 292 kts
2026-04-27 20:31 38.87554 41.44431 11074 ft 310 kts 32°
2026-04-27 20:31 38.89100 41.46433 11267 ft 328 kts 62°
2026-04-27 20:32 38.89687 41.49272 11741 ft 337 kts 90°
2026-04-27 20:32 38.89143 41.52203 12323 ft 344 kts 117°
2026-04-27 20:32 38.87595 41.54555 12936 ft 351 kts 141°
2026-04-27 20:32 38.85572 41.56269 13568 ft 355 kts 149°
2026-04-27 20:33 38.83438 41.57898 14173 ft 359 kts 149°
2026-04-27 20:33 38.81275 41.59545 14751 ft 363 kts 149°
2026-04-27 20:33 38.79023 41.61032 15314 ft 367 kts 158°
2026-04-27 20:33 38.76549 41.61888 15880 ft 371 kts 173°
2026-04-27 20:34 38.73974 41.61737 16439 ft 374 kts 195°
2026-04-27 20:34 38.71649 41.60285 16977 ft 376 kts 220°
2026-04-27 20:34 38.70445 41.58698 17354 ft 376 kts 232°
2026-04-27 20:34 38.68312 41.55117 18135 ft 380 kts 233°
2026-04-27 20:35 38.66732 41.52445 18638 ft 383 kts 234°
2026-04-27 20:35 38.65112 41.49722 19125 ft 386 kts 233°
2026-04-27 20:35 38.63475 41.46983 19616 ft 389 kts 234°
2026-04-27 20:35 38.62098 41.44007 20060 ft 391 kts 247°
2026-04-27 20:36 38.61254 41.40709 20532 ft 392 kts 259°
2026-04-27 20:36 38.61002 41.37244 20995 ft 393 kts 273°
2026-04-27 20:36 38.61172 41.34943 21295 ft 393 kts 281°
2026-04-27 20:36 38.61902 41.31573 21759 ft 395 kts 290°
2026-04-27 20:37 38.62824 41.28255 22223 ft 397 kts 290°
2026-04-27 20:37 38.63747 41.24917 22720 ft 399 kts 290°
2026-04-27 20:37 38.64676 41.21565 23191 ft 401 kts 290°
2026-04-27 20:37 38.65650 41.18207 23651 ft 403 kts 291°
2026-04-27 20:38 38.66663 41.14842 24030 ft 406 kts 292°
2026-04-27 20:38 38.67696 41.11471 24418 ft 408 kts 292°
2026-04-27 20:38 38.68737 41.08084 24802 ft 410 kts 292°
2026-04-27 20:38 38.69778 41.04672 25182 ft 413 kts 292°
2026-04-27 20:39 38.70819 41.01236 25573 ft 415 kts 291°
2026-04-27 20:39 38.71858 40.97781 25952 ft 417 kts 291°
2026-04-27 20:39 38.72897 40.94307 26325 ft 419 kts 291°
2026-04-27 20:39 38.73940 40.90810 26698 ft 421 kts 291°
2026-04-27 20:40 38.74971 40.87343 27059 ft 424 kts 291°
2026-04-27 20:40 38.76024 40.83805 27417 ft 426 kts 291°
2026-04-27 20:40 38.77084 40.80250 27773 ft 428 kts 291°
2026-04-27 20:40 38.78149 40.76674 28133 ft 431 kts 291°
2026-04-27 20:41 38.79219 40.73079 28488 ft 433 kts 291°
2026-04-27 20:41 38.80293 40.69464 28858 ft 435 kts 291°
2026-04-27 20:41 38.81369 40.65828 29193 ft 437 kts 290°
2026-04-27 20:41 38.82448 40.62173 29540 ft 440 kts 290°
2026-04-27 20:42 38.83515 40.58544 29860 ft 442 kts 290°
2026-04-27 20:42 38.84603 40.54846 30168 ft 444 kts 290°
2026-04-27 20:42 38.85698 40.51127 30440 ft 446 kts 290°
2026-04-27 20:42 38.86795 40.47398 30717 ft 447 kts 290°
2026-04-27 20:43 38.87892 40.43659 30982 ft 449 kts 290°
2026-04-27 20:43 38.88994 40.39905 31235 ft 450 kts 290°
2026-04-27 20:43 38.90100 40.36148 31546 ft 449 kts 290°
2026-04-27 20:43 38.91198 40.32404 31890 ft 448 kts 290°
2026-04-27 20:44 38.92276 40.28719 32241 ft 446 kts 290°
2026-04-27 20:44 38.93361 40.24994 32590 ft 445 kts 290°
2026-04-27 20:44 38.94442 40.21270 32928 ft 444 kts 290°
2026-04-27 20:44 38.95519 40.17549 33245 ft 444 kts 290°
2026-04-27 20:45 38.96594 40.13836 33551 ft 444 kts 290°
2026-04-27 20:45 38.97671 40.10117 33857 ft 444 kts 290°
2026-04-27 20:45 38.98746 40.06402 34128 ft 444 kts 290°
2026-04-27 20:45 38.99825 40.02684 34376 ft 443 kts 290°
2026-04-27 20:46 39.00901 39.98973 34634 ft 443 kts 290°
2026-04-27 20:46 39.01962 39.95311 34893 ft 443 kts 290°
2026-04-27 20:46 39.03030 39.91606 35172 ft 442 kts 290°
2026-04-27 20:46 39.04093 39.87905 35448 ft 441 kts 290°
2026-04-27 20:47 39.05152 39.84211 35730 ft 439 kts 289°
2026-04-27 20:47 39.06203 39.80530 36013 ft 438 kts 289°
2026-04-27 20:47 39.07255 39.76851 36285 ft 437 kts 289°
2026-04-27 20:47 39.08306 39.73187 36554 ft 436 kts 289°
2026-04-27 20:48 39.09342 39.69581 36808 ft 435 kts 289°
2026-04-27 20:48 39.10386 39.65933 37057 ft 434 kts 289°
2026-04-27 20:48 39.11423 39.62284 37296 ft 433 kts 288°
2026-04-27 20:48 39.12453 39.58645 37520 ft 433 kts 288°
2026-04-27 20:49 39.13482 39.55006 37725 ft 432 kts 288°
2026-04-27 20:49 39.14508 39.51372 37929 ft 432 kts 288°
2026-04-27 20:49 39.15537 39.47735 38030 ft 432 kts 288°
2026-04-27 20:49 39.16566 39.44099 38039 ft 431 kts 288°
2026-04-27 20:50 39.18602 39.36889 38038 ft 431 kts 288°
2026-04-27 20:50 39.20647 39.29625 38036 ft 431 kts 288°
2026-04-27 20:51 39.22690 39.22358 38030 ft 432 kts 288°
2026-04-27 20:51 39.24738 39.15072 38037 ft 432 kts 288°
2026-04-27 20:52 39.26772 39.07782 38045 ft 432 kts 288°
2026-04-27 20:52 39.28786 39.00522 38052 ft 433 kts 288°
2026-04-27 20:53 39.30814 38.93209 38059 ft 433 kts 288°
2026-04-27 20:53 39.32849 38.85880 38073 ft 433 kts 288°
2026-04-27 20:54 39.35878 38.74875 38078 ft 434 kts 288°
2026-04-27 20:55 39.37894 38.67524 38086 ft 434 kts 288°
2026-04-27 20:55 39.39900 38.60228 38092 ft 433 kts 288°
2026-04-27 20:56 39.41920 38.52833 38100 ft 433 kts 288°
2026-04-27 20:56 39.43904 38.45530 38109 ft 433 kts 288°
2026-04-27 20:57 39.45904 38.38183 38112 ft 433 kts 288°
2026-04-27 20:57 39.47896 38.30815 38116 ft 433 kts 288°
2026-04-27 20:58 39.49882 38.23457 38126 ft 433 kts 288°
2026-04-27 20:58 39.51870 38.16100 38126 ft 433 kts 288°
2026-04-27 20:59 39.53836 38.08786 38137 ft 433 kts 288°
2026-04-27 20:59 39.55800 38.01422 38146 ft 433 kts 288°
2026-04-27 21:00 39.57761 37.94052 38138 ft 432 kts 288°
2026-04-27 21:00 39.59720 37.86688 38152 ft 432 kts 288°
2026-04-27 21:01 39.61675 37.79325 38162 ft 431 kts 288°
2026-04-27 21:01 39.63606 37.72020 38161 ft 431 kts 288°
2026-04-27 21:02 39.65556 37.64669 38174 ft 431 kts 288°
2026-04-27 21:02 39.67497 37.57314 38180 ft 431 kts 288°
2026-04-27 21:03 39.69423 37.49961 38184 ft 430 kts 288°
2026-04-27 21:03 39.71338 37.42612 38191 ft 430 kts 288°
2026-04-27 21:04 39.73254 37.35260 38201 ft 429 kts 288°
2026-04-27 21:04 39.75152 37.27962 38200 ft 429 kts 288°
2026-04-27 21:05 39.77055 37.20611 38204 ft 429 kts 288°
2026-04-27 21:05 39.78951 37.13266 38206 ft 429 kts 288°
2026-04-27 21:06 39.80837 37.05917 38199 ft 428 kts 288°
2026-04-27 21:06 39.82728 36.98571 38191 ft 428 kts 288°